This is the latest recevied weather packets stored in our database for station/object KC3DGM. If no packets are shown the sender has not sent any weather packets the latest 10 day(s).
| Time | Temp. | Humidity | Pressure | Rain* | Wind** | Luminosity | Snow |
|---|---|---|---|---|---|---|---|
| 1777985869 | 18.33° C | 69% | 978.2 hPa | 0 mm | - | 103 W/m² | - |
| 1777985566 | 18.33° C | 69% | 978.4 hPa | 0 mm | - | 121 W/m² | - |
| 1777985262 | 18.33° C | 69% | 978.1 hPa | 0 mm | - | 77 W/m² | - |
| 1777984959 | 18.33° C | 69% | 978.1 hPa | 0 mm | - | 70 W/m² | - |
| 1777984655 | 18.33° C | 69% | 978.2 hPa | 0 mm | - | 98 W/m² | - |
| 1777984352 | 18.33° C | 69% | 978.1 hPa | 0 mm | - | 91 W/m² | - |
| 1777984048 | 18.33° C | 69% | 978.2 hPa | 0 mm | - | 99 W/m² | - |
| 1777983746 | 18.33° C | 69% | 978 hPa | 0 mm | - | 101 W/m² | - |
| 1777983442 | 18.33° C | 69% | 978.1 hPa | 0 mm | - | 95 W/m² | - |
| 1777983139 | 17.78° C | 70% | 978.1 hPa | 0 mm | - | 79 W/m² | - |
| 1777982835 | 17.78° C | 70% | 977.9 hPa | 0 mm | - | 68 W/m² | - |
| 1777982531 | 17.78° C | 70% | 978.1 hPa | 0 mm | - | 62 W/m² | - |
| 1777982225 | 17.78° C | 70% | 978 hPa | 0 mm | - | 65 W/m² | - |
| 1777981923 | 17.78° C | 71% | 977.8 hPa | 0 mm | - | 69 W/m² | - |
| 1777981620 | 17.78° C | 71% | 978 hPa | 0 mm | - | 65 W/m² | - |
| 1777981316 | 17.22° C | 71% | 977.6 hPa | 0 mm | - | 50 W/m² | - |
| 1777981013 | 17.22° C | 72% | 977.6 hPa | 0 mm | - | 46 W/m² | - |
| 1777980709 | 17.22° C | 72% | 977.6 hPa | 0 mm | - | 23 W/m² | - |
| 1777980405 | 17.22° C | 73% | 977.3 hPa | 0 mm | - | 32 W/m² | - |
| 1777980103 | 17.22° C | 72% | 977.5 hPa | 0 mm | - | 27 W/m² | - |
| 1777979803 | 17.22° C | 72% | 977.3 hPa | 0 mm | - | 27 W/m² | - |
| 1777979499 | 17.22° C | 72% | 977.5 hPa | 0 mm | - | 34 W/m² | - |
| 1777979195 | 17.22° C | 73% | 977.2 hPa | 0 mm | - | 30 W/m² | - |
| 1777978893 | 17.22° C | 73% | 977.1 hPa | 0 mm | - | 26 W/m² | - |
| 1777978589 | 17.22° C | 73% | 977 hPa | 0 mm | - | 20 W/m² | - |
* Rain latest hour (hover to see other rain measurements)
** Current wind speed in m/s (hover to see current wind gust speed)